TimeCET,TemperatureF,Dew PointF,Humidity,Sea Level PressureIn,VisibilityMPH,Wind Direction,Wind SpeedMPH,Gust SpeedMPH,PrecipitationIn,Events,Conditions,WindDirDegrees,DateUTC
12:50 AM,53.6,32.0,44,29.83,-9999.0,South,12.7,-,N/A,,Clear,180,2013-01-14 23:50:00
1:50 AM,51.8,30.2,44,29.83,-9999.0,SSW,12.7,-,N/A,,Clear,210,2013-01-15 00:50:00
2:50 AM,51.8,28.4,41,29.86,-9999.0,SSW,16.1,-,N/A,,Clear,200,2013-01-15 01:50:00
3:50 AM,51.8,28.4,41,29.86,-9999.0,SSW,13.8,-,N/A,,Clear,200,2013-01-15 02:50:00
4:50 AM,51.8,26.6,38,29.83,-9999.0,SSW,16.1,-,N/A,,Clear,200,2013-01-15 03:50:00
5:50 AM,50.0,26.6,40,29.83,-9999.0,SSW,9.2,-,N/A,,Clear,200,2013-01-15 04:50:00
6:50 AM,50.0,28.4,43,29.83,6.2,SSW,12.7,-,N/A,,Partly Cloudy,210,2013-01-15 05:50:00
7:50 AM,51.8,28.4,41,29.83,6.2,South,15.0,-,N/A,,Partly Cloudy,180,2013-01-15 06:50:00
8:50 AM,53.6,30.2,41,29.80,-9999.0,SW,16.1,-,N/A,,Clear,220,2013-01-15 07:50:00
9:25 AM,55.4,30.2,38,29.80,-9999.0,SW,17.3,28.8,N/A,,Clear,230,2013-01-15 08:25:00
9:50 AM,55.4,30.2,38,29.80,-9999.0,SW,20.7,32.2,N/A,,Clear,230,2013-01-15 08:50:00
10:50 AM,57.2,30.2,36,29.77,-9999.0,SW,20.7,32.2,N/A,,Clear,220,2013-01-15 09:50:00
11:50 AM,57.2,28.4,33,29.77,-9999.0,SW,19.6,-,N/A,,Clear,220,2013-01-15 10:50:00
12:50 PM,59.0,28.4,31,29.77,6.2,SSW,12.7,-,N/A,,Partly Cloudy,210,2013-01-15 11:50:00
1:50 PM,-9999,-9999,N/A,29.74,6.2,SW,10.4,-,N/A,,Partly Cloudy,220,2013-01-15 12:50:00
2:50 PM,57.2,28.4,33,29.74,6.2,SW,10.4,-,N/A,,Mostly Cloudy,230,2013-01-15 13:50:00
3:50 PM,59.0,28.4,31,29.71,6.2,SSW,18.4,-,N/A,,Mostly Cloudy,210,2013-01-15 14:50:00
4:50 PM,55.4,24.8,31,29.71,6.2,SSW,18.4,-,N/A,,Partly Cloudy,210,2013-01-15 15:50:00
5:50 PM,51.8,24.8,35,29.68,6.2,Variable,1.2,-,N/A,,Partly Cloudy,0,2013-01-15 16:50:00
6:50 PM,51.8,28.4,41,29.68,-9999.0,Variable,3.5,-,N/A,,Clear,0,2013-01-15 17:50:00
7:50 PM,46.4,24.8,43,29.68,-9999.0,Variable,1.2,-,N/A,,Clear,0,2013-01-15 18:50:00
8:50 PM,42.8,28.4,57,29.65,-9999.0,Calm,Calm,-,N/A,,Clear,0,2013-01-15 19:50:00
9:50 PM,41.0,26.6,57,29.65,-9999.0,Variable,2.3,-,N/A,,Clear,0,2013-01-15 20:50:00
10:50 PM,37.4,26.6,65,29.62,-9999.0,SSW,4.6,-,N/A,,Clear,200,2013-01-15 21:50:00
11:50 PM,37.4,28.4,70,29.59,-9999.0,Variable,1.2,-,N/A,,Clear,0,2013-01-15 22:50:00